IBE6643 GMMX-LEIB

Flight info

Callsign IBE6643
Flight time N/A
Altitude 36000
Route OBOGA UG850 BERUM N860 AMR/N0414F270 Y810 ALT/N0441F380 N851 RUXET
Aircraft A320/M-SDE3FGHIRWY/LB1

Departure

Time 2026-04-30 14:22
Airport Marrakesh Menara Airport (GMMX)

Arrival

Time N/A
Airport Ibiza Airport (LEIB)
Time Latitude Longitude Altitude Speed Heading
2026-04-30 13:29 31.60130 -8.02312 1550 ft 0 kts 276°
2026-04-30 14:13 31.60128 -8.02292 1549 ft 4 kts 279°
2026-04-30 14:13 31.60122 -8.02262 1549 ft 4 kts 289°
2026-04-30 14:14 31.60111 -8.02234 1549 ft 4 kts 316°
2026-04-30 14:14 31.60094 -8.02224 1549 ft 1 kts
2026-04-30 14:14 31.60090 -8.02225 1549 ft 0 kts
2026-04-30 14:18 31.60106 -8.02222 1549 ft 7 kts
2026-04-30 14:18 31.60178 -8.02214 1549 ft 13 kts
2026-04-30 14:18 31.60387 -8.02171 1549 ft 11 kts 65°
2026-04-30 14:19 31.60445 -8.02035 1549 ft 15 kts
2026-04-30 14:19 31.60551 -8.02054 1549 ft 14 kts 306°
2026-04-30 14:19 31.60556 -8.02134 1549 ft 11 kts 276°
2026-04-30 14:20 31.60560 -8.02181 1549 ft 0 kts 276°
2026-04-30 14:21 31.60561 -8.02189 1549 ft 4 kts 276°
2026-04-30 14:21 31.60576 -8.02379 1549 ft 62 kts 275°
2026-04-30 14:21 31.60780 -8.04601 1637 ft 193 kts 278°
2026-04-30 14:22 31.60941 -8.06227 2286 ft 205 kts 277°
2026-04-30 14:22 31.61254 -8.09597 3826 ft 219 kts 277°
2026-04-30 14:22 31.61412 -8.11462 4236 ft 239 kts 277°
2026-04-30 14:23 31.61754 -8.15453 4970 ft 248 kts 279°
2026-04-30 14:23 31.63399 -8.18869 5004 ft 245 kts 322°
2026-04-30 14:24 31.66554 -8.20090 4983 ft 247 kts
2026-04-30 14:24 31.68219 -8.19645 4982 ft 248 kts 24°
2026-04-30 14:25 31.70637 -8.16872 4982 ft 250 kts 66°
2026-04-30 14:25 31.71336 -8.12874 4983 ft 252 kts 81°
2026-04-30 14:26 31.71864 -8.08771 4986 ft 265 kts 81°
2026-04-30 14:26 31.72140 -8.06626 4983 ft 271 kts 81°
2026-04-30 14:26 31.72701 -8.02227 4983 ft 273 kts 81°
2026-04-30 14:27 31.72983 -8.00028 4982 ft 273 kts 80°
2026-04-30 14:27 31.73272 -7.97825 4983 ft 273 kts 78°
2026-04-30 14:27 31.73881 -7.95721 4981 ft 271 kts 61°
2026-04-30 14:28 31.76205 -7.92179 5904 ft 277 kts 50°
2026-04-30 14:28 31.77439 -7.90435 6827 ft 280 kts 51°
2026-04-30 14:28 31.78688 -7.88657 7624 ft 286 kts 51°
2026-04-30 14:28 31.79950 -7.86858 8391 ft 292 kts 51°
2026-04-30 14:29 31.82574 -7.83123 10002 ft 302 kts 52°
2026-04-30 14:29 31.84949 -7.79802 10523 ft 339 kts 49°
2026-04-30 14:30 31.90552 -7.72621 12597 ft 365 kts 47°
2026-04-30 14:31 31.94001 -7.68211 14025 ft 372 kts 47°
2026-04-30 14:31 31.97522 -7.63654 15265 ft 380 kts 46°
2026-04-30 14:31 31.99309 -7.61333 15898 ft 384 kts 46°
2026-04-30 14:32 32.02927 -7.56624 17101 ft 392 kts 46°
2026-04-30 14:32 32.04766 -7.54230 17692 ft 396 kts 45°
2026-04-30 14:32 32.06621 -7.51812 18273 ft 400 kts 45°
2026-04-30 14:33 32.08473 -7.49397 18768 ft 404 kts 45°
2026-04-30 14:33 32.11651 -7.45250 19626 ft 409 kts 45°
2026-04-30 14:33 32.14112 -7.42038 20267 ft 414 kts 46°
2026-04-30 14:34 32.16046 -7.39509 20753 ft 417 kts 46°
2026-04-30 14:34 32.17996 -7.36956 21243 ft 421 kts 46°
2026-04-30 14:34 32.19961 -7.34381 21730 ft 424 kts 46°
2026-04-30 14:34 32.20601 -7.33541 21881 ft 425 kts 46°
2026-04-30 14:35 32.25256 -7.27419 22969 ft 432 kts 46°
2026-04-30 14:35 32.27937 -7.23899 23573 ft 437 kts 46°
2026-04-30 14:35 32.29971 -7.21230 23955 ft 439 kts 46°
2026-04-30 14:36 32.32024 -7.18536 24354 ft 441 kts 46°
2026-04-30 14:36 32.34084 -7.15829 24720 ft 444 kts 46°
2026-04-30 14:36 32.36155 -7.13106 25079 ft 447 kts 46°
2026-04-30 14:36 32.38245 -7.10361 25430 ft 450 kts 47°
2026-04-30 14:37 32.40345 -7.07599 25768 ft 453 kts 47°
2026-04-30 14:37 32.42458 -7.04818 26110 ft 456 kts 47°
2026-04-30 14:37 32.44556 -7.02056 26461 ft 458 kts 47°
2026-04-30 14:37 32.46687 -6.99238 26803 ft 461 kts 47°
2026-04-30 14:38 32.48829 -6.96401 27142 ft 464 kts 47°
2026-04-30 14:38 32.50990 -6.93544 27478 ft 466 kts 47°
2026-04-30 14:38 32.53160 -6.90672 27811 ft 469 kts 47°
2026-04-30 14:38 32.55341 -6.87784 28146 ft 472 kts 47°
2026-04-30 14:39 32.57535 -6.84881 28468 ft 474 kts 47°
2026-04-30 14:39 32.59740 -6.81959 28738 ft 478 kts 49°
2026-04-30 14:39 32.61213 -6.80003 28911 ft 480 kts 49°
2026-04-30 14:40 32.66406 -6.73086 29590 ft 486 kts 49°
2026-04-30 14:40 32.68659 -6.70083 29875 ft 488 kts 49°
2026-04-30 14:40 32.70929 -6.67062 30144 ft 491 kts 49°
2026-04-30 14:40 32.73210 -6.64031 30379 ft 494 kts 49°
2026-04-30 14:41 32.75501 -6.60981 30622 ft 496 kts 49°
2026-04-30 14:41 32.77019 -6.58960 30792 ft 496 kts 49°
2026-04-30 14:41 32.79316 -6.55898 31152 ft 495 kts 49°
2026-04-30 14:41 32.82339 -6.51858 31638 ft 493 kts 49°
2026-04-30 14:42 32.84612 -6.48810 31998 ft 492 kts 49°
2026-04-30 14:42 32.86883 -6.45760 32347 ft 491 kts 50°
2026-04-30 14:42 32.89142 -6.42728 32769 ft 489 kts 50°
2026-04-30 14:42 32.90633 -6.40727 33041 ft 487 kts 50°
2026-04-30 14:43 32.92877 -6.37719 33442 ft 485 kts 50°
2026-04-30 14:43 32.95115 -6.34723 33822 ft 484 kts 50°
2026-04-30 14:43 32.98071 -6.30770 34275 ft 482 kts 50°
2026-04-30 14:43 33.00296 -6.27792 34578 ft 481 kts 50°
2026-04-30 14:44 33.02524 -6.24804 34805 ft 482 kts 50°
2026-04-30 14:44 33.04750 -6.21815 35044 ft 483 kts 50°
2026-04-30 14:44 33.06977 -6.18820 35292 ft 483 kts 50°
2026-04-30 14:44 33.08452 -6.16834 35462 ft 483 kts 50°
2026-04-30 14:45 33.10680 -6.13836 35708 ft 482 kts 50°
2026-04-30 14:45 33.12907 -6.10842 35957 ft 483 kts 49°
2026-04-30 14:45 33.18130 -6.03812 36052 ft 493 kts 50°
2026-04-30 14:46 33.21938 -5.98669 36052 ft 501 kts 50°
2026-04-30 14:46 33.26593 -5.92357 36059 ft 511 kts 50°
2026-04-30 14:47 33.28935 -5.89177 36436 ft 507 kts 50°
2026-04-30 14:47 33.31252 -5.86030 36897 ft 501 kts 49°
2026-04-30 14:47 33.33529 -5.82938 37360 ft 490 kts 49°
2026-04-30 14:47 33.36477 -5.78931 37979 ft 480 kts 49°
2026-04-30 14:48 33.37965 -5.76907 38187 ft 477 kts 49°
2026-04-30 14:48 33.40126 -5.73966 37693 ft 477 kts 49°
2026-04-30 14:48 33.42323 -5.70976 36980 ft 477 kts 49°
2026-04-30 14:48 33.44511 -5.67990 36351 ft 476 kts 50°
2026-04-30 14:49 33.46684 -5.65012 35737 ft 475 kts 50°
2026-04-30 14:49 33.48854 -5.62034 35124 ft 474 kts 50°
2026-04-30 14:49 33.51034 -5.59039 34375 ft 480 kts 51°
2026-04-30 14:49 33.53243 -5.56002 34150 ft 485 kts 51°
2026-04-30 14:50 33.59901 -5.46839 34096 ft 492 kts 51°
2026-04-30 14:51 33.66652 -5.37542 34098 ft 493 kts 51°
2026-04-30 14:52 33.74106 -5.27248 34096 ft 489 kts 51°
2026-04-30 14:52 33.80041 -5.19026 34101 ft 489 kts 51°
2026-04-30 14:53 33.87443 -5.08752 34109 ft 491 kts 51°
2026-04-30 14:54 33.96297 -4.98107 34112 ft 496 kts 38°
2026-04-30 14:55 34.04538 -4.90619 34102 ft 492 kts 38°
2026-04-30 14:56 34.15403 -4.80692 34073 ft 492 kts 38°
2026-04-30 14:57 34.23588 -4.73183 34049 ft 493 kts 38°
2026-04-30 14:58 34.34507 -4.63143 34042 ft 493 kts 38°
2026-04-30 14:58 34.42649 -4.55622 34041 ft 494 kts 39°
2026-04-30 15:00 34.56260 -4.42904 34052 ft 494 kts 39°
2026-04-30 15:01 34.67119 -4.32731 34072 ft 495 kts 39°
2026-04-30 15:01 34.75329 -4.25005 34063 ft 499 kts 39°
2026-04-30 15:02 34.80820 -4.19838 34065 ft 499 kts 39°
2026-04-30 15:03 34.94498 -4.06915 34068 ft 501 kts 40°
2026-04-30 15:04 35.08296 -3.93825 34076 ft 503 kts 40°
2026-04-30 15:06 35.22080 -3.80717 34070 ft 505 kts 39°
2026-04-30 15:07 35.33328 -3.70370 34073 ft 506 kts 39°
2026-04-30 15:08 35.44508 -3.59979 34070 ft 506 kts 39°
2026-04-30 15:09 35.58600 -3.46810 34062 ft 510 kts 39°
2026-04-30 15:10 35.69861 -3.36262 34061 ft 510 kts 39°
2026-04-30 15:11 35.86849 -3.20250 34054 ft 515 kts 39°
2026-04-30 15:13 36.00945 -3.06646 34054 ft 514 kts 39°
2026-04-30 15:14 36.20582 -2.87601 34058 ft 513 kts 39°
2026-04-30 15:17 36.46137 -2.63140 34053 ft 518 kts 39°
2026-04-30 15:19 36.68674 -2.40644 34053 ft 520 kts 39°